This demonstration page uses our WeatherBlox Daily Observations layout. Learn more.

Left ArrowRight Arrow

44.89941, -97.11507

Hourly Observations for August 11, 2016

Temp ( °F °C ) Dew Point ( °F °C ) Humidity (%) Winds ( mph kmh ) Pressure ( in mb ) Visibility ( mi km ) Precip ( " mm )
12:15 am 00:15 Cloudy with Thunderstorms 70 21.1 64 17.8 82 82 N 25 41 29.83 1010 10 16 0.00 0.00
12:32 am 00:32 Cloudy with Strong Thunderstorms 67 19.4 65 18.3 93 93 NNW 15 24 29.85 1011 2 3 0.22 5.59
12:36 am 00:36 Cloudy with Strong Thunderstorms 67 19.4 65 18.3 93 93 N 15 24 29.85 1011 1 2 0.50 12.70
12:43 am 00:43 Mostly Cloudy with Strong Thunderstorms 67 19.4 65 18.3 93 93 N 12 19 29.85 1011 1 1 0.92 23.37
12:49 am 00:49 Cloudy with Strong Thunderstorms 66 19 66 19 100 100 W 12 19 29.91 1013 1 2 1.05 26.67
12:53 am 00:53 Cloudy with Strong Thunderstorms 67 19.4 66 18.9 97 97 W 15 24 29.90 1012 1 2 1.22 30.99
12:56 am 00:56 Cloudy with Strong Thunderstorms 67 19.4 66 18.9 97 97 WSW 13 20 29.91 1013 1 1 0.14 3.56
1:04 am 01:04 Cloudy with Strong Thunderstorms 67 19.4 66 18.9 97 97 SW 7 11 29.91 1013 1 1 0.33 8.38
1:11 am 01:11 Cloudy with Strong Thunderstorms 67 19.4 66 18.9 97 97 ESE 5 7 29.85 1011 2 2 0.38 9.65
1:14 am 01:14 Cloudy with Thunderstorms 67 19.4 66 18.9 97 97 ESE 6 9 29.85 1011 3 4 0.38 9.65
1:18 am 01:18 Cloudy with Thunderstorms 67 19.4 65 18.3 93 93 SE 6 9 29.85 1011 6 10 0.38 9.65
1:28 am 01:28 Cloudy with Thunderstorms 67 19.4 66 18.9 97 97 ESE 6 9 29.85 1011 9 14 0.39 9.91
1:44 am 01:44 Cloudy with Nearby Thunderstorms 67 19.4 66 18.9 97 97 E 15 24 29.77 1008 10 16 0.41 10.41
1:53 am 01:53 Cloudy with Nearby Thunderstorms 67 19.4 66 18.9 97 97 E 20 31 29.73 1007 10 16 0.42 10.67
2:06 am 02:06 Mostly Cloudy with Light Rain 69 20.6 66 18.9 90 90 S 14 22 29.71 1006 10 16 0.00 0.03
2:53 am 02:53 Clear 68 20 66 18.9 93 93 SSE 10 17 29.77 1008 10 16 0.00 0.03
3:51 am 03:51 Mostly Clear 68 20 66 19 94 94 ENE 5 7 29.77 1008 10 16 0.00 0.00
3:53 am 03:53 Partly Cloudy 68 20 66 18.9 93 93 ENE 7 11 29.80 1009 10 16 0.00 0.00
4:53 am 04:53 Clear 68 20 66 18.9 93 93 SE 8 13 29.79 1009 10 16 0.00 0.00
5:53 am 05:53 Clear 68 20 65 18.3 90 90 SE 9 15 29.78 1009 10 16 0.00 0.00
6:53 am 06:53 Sunny 67 19.4 65 18.3 93 93 SSE 10 17 29.81 1009 10 16 0.00 0.00
7:53 am 07:53 Sunny 69 20.6 66 18.9 90 90 S 9 15 29.79 1009 10 16 0.00 0.00
8:53 am 08:53 Sunny 72 22.2 67 19.4 84 84 S 8 13 29.80 1009 10 16 0.00 0.00
9:53 am 09:53 Sunny 75 23.9 67 19.4 76 76 S 7 11 29.82 1010 10 16 0.00 0.00
10:53 am 10:53 Sunny 78 25.6 67 19.4 69 69 SSW 8 13 29.83 1010 10 16 0.00 0.00
11:53 am 11:53 Sunny 78 25.6 68 20 71 71 SW 10 17 29.85 1011 10 16 0.00 0.00
12:53 pm 12:53 Mostly Cloudy 80 26.7 68 20 67 67 NW 6 9 29.85 1011 10 16 0.00 0.00
1:53 pm 13:53 Sunny 82 27.8 69 20.6 65 65 Calm 29.85 1011 10 16 0.00 0.00
2:53 pm 14:53 Sunny 85 29.4 69 20.6 59 59 VRB 5 7 29.83 1010 10 16 0.00 0.00
3:53 pm 15:53 Cloudy 85 29.4 69 20.6 59 59 SW 5 7 29.83 1010 10 16 0.00 0.00
4:53 pm 16:53 Mostly Cloudy 83 28.3 71 21.7 67 67 NE 10 17 29.84 1010 10 16 0.00 0.00
5:53 pm 17:53 Cloudy with Rain 78 25.6 72 22.2 82 82 E 14 22 29.85 1011 7 11 0.05 1.27
6:53 pm 18:53 Mostly Cloudy 80 26.7 72 22.2 76 76 ENE 14 22 29.84 1011 10 16 0.00 0.03
7:53 pm 19:53 Cloudy 78 25.6 71 21.7 79 79 E 9 15 29.84 1010 10 16 0.00 0.00
8:28 pm 20:28 Cloudy 77 25 71 21.7 82 82 E 7 11 29.80 1009 10 16 0.00 0.00
8:53 pm 20:53 Cloudy 77 25 72 22.2 85 85 ENE 7 11 29.85 1011 10 16 0.00 0.00
9:48 pm 21:48 Cloudy with Thunderstorms 75 24 72 22 89 89 ENE 8 13 29.80 1009 10 16 0.01 0.25
9:53 pm 21:53 Cloudy with Thunderstorms 75 23.9 72 22.2 90 90 NE 8 13 29.84 1011 10 16 0.01 0.25
10:03 pm 22:03 Cloudy with Nearby Thunderstorms 75 23.9 72 22.2 90 90 NE 9 15 29.80 1009 10 16 0.01 0.25
10:24 pm 22:24 Cloudy with Thunderstorms 75 23.9 72 22.2 90 90 NNE 7 11 29.83 1010 10 16 0.02 0.51
10:30 pm 22:30 Cloudy with Thunderstorms 75 23.9 72 22.2 90 90 ENE 5 7 29.83 1010 10 16 0.02 0.51
10:49 pm 22:49 Cloudy with Strong Thunderstorms 73 23 72 22 94 94 NNE 5 7 29.83 1010 4 6 0.12 3.05
10:53 pm 22:53 Cloudy with Strong Thunderstorms 74 23.3 72 22.2 94 94 NNE 5 7 29.85 1011 3 5 0.15 3.81
10:58 pm 22:58 Cloudy with Strong Thunderstorms 74 23.3 72 22.2 94 94 VRB 7 11 29.83 1010 3 4 0.09 2.29
11:02 pm 23:02 Cloudy with Strong Thunderstorms 73 22.8 72 22.2 96 96 E 9 15 29.85 1011 1 2 0.31 7.87
11:10 pm 23:10 Cloudy with Strong Thunderstorms 71 21.7 70 21.1 96 96 S 8 13 29.91 1013 1 1 0.87 22.10
11:22 pm 23:22 Mostly Cloudy with Strong Thunderstorms 68 20 66 18.9 93 93 undefined N/A 29.94 1014 0 0 2.16 54.86
11:34 pm 23:34 Mostly Cloudy with Strong Thunderstorms 69 20.6 65 18.3 87 87 VRB 5 7 29.91 1013 1 1 2.93 74.42
11:53 pm 23:53 Cloudy with Strong Thunderstorms 70 21.1 62 16.7 76 76 NW 6 9 29.91 1013 2 3 3.43 87.12

Powered by AerisWeather